FW0958 Weather Reports


Display with metric or nautical units.
time (UTC)temp
F
wind
direction
speed
MPH
gust
MPH
rain 1hr
in
rain 24hr
in
rain mn
in
humidity
%
barometer
mb
20260906221905 91 106 3.0 6.0 0.00 0.00 0.00 56 1010.8
20260906221859 91 87 3.0 9.0 0.00 0.00 0.00 55 1010.7
20260906220905 91 124 2.0 6.0 0.00 0.00 0.00 55 1010.9
20260906220859 91 18 2.0 6.0 0.00 0.00 0.00 56 1010.8
20260906215859 91 78 3.0 5.0 0.00 0.00 0.00 56 1011.0
20260906215403 90 114 3.0 7.0 0.00 0.00 0.00 57 1011.1
20260906215357 90 95 3.0 7.0 0.00 0.00 0.00 57 1011.0
20260906215015 90 108 2.0 6.0 0.00 0.00 0.00 57 1011.1
20260906213858 90 106 2.0 7.0 0.00 0.00 0.00 58 1011.2
20260906213402 90 139 2.0 7.0 0.00 0.00 0.00 59 1011.4
20260906213357 90 34 2.0 7.0 0.00 0.00 0.00 59 1011.3
20260906212401 90 114 2.0 5.0 0.00 0.00 0.00 60 1011.4
20260906212357 90 64 2.0 7.0 0.00 0.00 0.00 59 1011.4
20260906211358 89 56 3.0 9.0 0.00 0.00 0.00 60 1011.4
20260906210858 89 104 3.0 9.0 0.00 0.00 0.00 59 1011.5
20260906210357 89 88 4.0 9.0 0.00 0.00 0.00 60 1011.6
20260906205856 89 124 4.0 9.0 0.00 0.00 0.00 59 1011.6
20260906205356 89 74 4.0 9.0 0.00 0.00 0.00 60 1011.7
20260906204857 89 96 4.0 9.0 0.00 0.00 0.00 59 1011.8
20260906204358 89 95 4.0 8.0 0.00 0.00 0.00 60 1012.0
20260906203857 89 138 3.0 8.0 0.00 0.00 0.00 61 1012.1
20260906203356 88 112 2.0 6.0 0.00 0.00 0.00 63 1012.1
20260906202858 88 77 1.0 6.0 0.00 0.00 0.00 65 1012.0
20260906202402 86 83 2.0 6.0 0.00 0.00 0.00 67 1012.4
20260906202356 87 76 2.0 6.0 0.00 0.00 0.00 66 1012.1
20260906201356 85 120 2.0 6.0 0.00 0.00 0.00 69 1012.4
20260906200900 83 87 4.0 10.0 0.00 0.00 0.00 70 1012.6
20260906200855 84 113 2.0 5.0 0.00 0.00 0.00 69 1012.5
20260906200457 83 87 3.0 10.0 0.00 0.00 0.00 69 1012.5
20260906195354 83 62 4.0 11.0 0.00 0.00 0.00 70 1012.6
20260906194853 82 111 5.0 11.0 0.00 0.00 0.00 70 1012.9
20260906194351 82 80 4.0 11.0 0.00 0.00 0.00 71 1012.8
20260906193850 82 80 3.0 8.0 0.00 0.00 0.00 72 1012.9
20260906193355 81 98 3.0 7.0 0.00 0.00 0.00 74 1013.2
20260906193351 82 120 2.0 7.0 0.00 0.00 0.00 74 1013.2
20260906193010 81 103 2.0 6.0 0.00 0.00 0.00 74 1013.1
20260906191850 81 91 2.0 5.0 0.00 0.00 0.00 75 1013.2
20260906191353 81 89 2.0 6.0 0.00 0.00 0.00 75 1013.2
20260906191348 80 93 2.0 6.0 0.00 0.00 0.00 75 1013.3
20260906190349 80 56 2.0 4.0 0.00 0.00 0.00 76 1013.4
20260906185848 80 120 2.0 4.0 0.00 0.00 0.00 76 1013.3
20260906185349 80 112 1.0 4.0 0.00 0.00 0.00 76 1013.4
20260906184848 79 111 1.0 4.0 0.00 0.00 0.00 77 1013.3
20260906184349 79 111 2.0 4.0 0.00 0.00 0.00 77 1013.4
20260906183849 79 110 2.0 3.0 0.00 0.00 0.00 78 1013.4
20260906183349 79 112 2.0 4.0 0.00 0.00 0.00 78 1013.5
20260906182849 78 113 2.0 4.0 0.00 0.00 0.00 77 1013.5
20260906182354 78 59 2.0 5.0 0.00 0.00 0.00 77 1013.6
20260906182349 78 115 1.0 5.0 0.00 0.00 0.00 77 1013.6
20260906181347 78 34 2.0 5.0 0.00 0.00 0.00 77 1013.7
20260906180848 78 47 2.0 5.0 0.00 0.00 0.00 77 1013.8
20260906180347 78 43 2.0 5.0 0.00 0.00 0.00 77 1013.7
20260906175848 78 82 2.0 4.0 0.00 0.00 0.00 78 1013.7
20260906175347 78 87 2.0 5.0 0.00 0.00 0.00 78 1013.5
20260906174846 78 58 2.0 5.0 0.00 0.00 0.00 77 1013.6
20260906174346 79 94 2.0 4.0 0.00 0.00 0.00 76 1013.5
20260906173846 79 62 2.0 4.0 0.00 0.00 0.00 75 1013.4
20260906173347 79 49 1.0 4.0 0.00 0.00 0.00 74 1013.4
20260906172851 79 64 0.0 0.0 0.00 0.00 0.00 74 1013.4
20260906172844 79 39 0.0 0.0 0.00 0.00 0.00 74 1013.4
20260906172346 79 73 0.0 0.0 0.00 0.00 0.00 74 1013.3
20260906171345 78 56 0.0 0.0 0.00 0.00 0.00 74 1013.4
20260906170844 78 74 0.0 0.0 0.00 0.00 0.00 75 1013.2
20260906170503 77 83 0.0 2.0 0.00 0.00 0.00 76 1013.0
20260906170349 78 83 0.0 2.0 0.00 0.00 0.00 76 1013.0
20260906170344 78 75 0.0 0.0 0.00 0.00 0.00 75 1013.0
20260906164851 76 83 0.0 1.0 0.00 0.00 0.00 77 1012.9
20260906164845 77 83 0.0 1.0 0.00 0.00 0.00 77 1012.9
20260906164503 76 83 0.0 1.0 0.00 0.00 0.00 77 1012.8
20260906163342 76 83 0.0 1.0 0.00 0.00 0.00 77 1012.8
20260906162841 76 83 0.0 2.0 0.00 0.00 0.00 78 1012.9
20260906162341 76 83 1.0 3.0 0.00 0.00 0.00 78 1012.8
20260906161841 75 83 1.0 3.0 0.00 0.00 0.00 78 1012.8
20260906161343 75 83 1.0 3.0 0.00 0.00 0.00 79 1012.8
20260906160847 75 83 1.0 3.0 0.00 0.00 0.00 78 1012.8
20260906160842 75 83 1.0 3.0 0.00 0.00 0.00 78 1012.8
20260906160503 74 82 0.0 0.0 0.00 0.00 0.00 80 1012.8
20260906160007 75 82 0.0 2.0 0.00 0.00 0.00 79 1012.8
20260906155842 75 83 1.0 2.0 0.00 0.00 0.00 79 1012.8
20260906154341 74 82 0.0 1.0 0.00 0.00 0.00 80 1012.9
20260906153840 74 82 0.0 1.0 0.00 0.00 0.00 81 1012.8
20260906153341 73 82 0.0 0.0 0.00 0.00 0.00 82 1012.8
20260906152840 73 83 0.0 1.0 0.00 0.00 0.00 83 1012.9
20260906152344 73 83 0.0 0.0 0.00 0.00 0.00 83 1012.9
20260906152339 73 83 0.0 1.0 0.00 0.00 0.00 83 1013.0
20260906151340 73 83 0.0 0.0 0.00 0.00 0.00 82 1012.9
20260906150840 73 83 1.0 2.0 0.00 0.00 0.00 82 1012.9
20260906150340 72 83 1.0 2.0 0.00 0.00 0.00 82 1012.9
20260906145838 72 83 0.0 1.0 0.00 0.00 0.00 82 1012.8
20260906145338 72 83 0.0 0.0 0.00 0.00 0.00 81 1012.8
20260906144843 73 83 0.0 0.0 0.00 0.00 0.00 79 1012.5
20260906144837 73 83 0.0 0.0 0.00 0.00 0.00 80 1012.6
20260906144457 73 83 0.0 0.0 0.00 0.00 0.00 79 1012.6
20260906143958 72 83 0.0 0.0 0.00 0.00 0.00 78 1012.6
20260906142838 72 83 0.0 0.0 0.00 0.00 0.00 78 1012.5
20260906142343 72 83 0.0 0.0 0.00 0.00 0.00 78 1012.3
20260906142337 72 83 0.0 0.0 0.00 0.00 0.00 79 1012.5
20260906141838 72 83 0.0 0.0 0.00 0.00 0.00 78 1012.3
20260906140839 72 83 0.0 0.0 0.00 0.00 0.00 79 1012.3
20260906140338 72 83 0.0 0.0 0.00 0.00 0.00 78 1012.2
20260906135843 71 83 0.0 0.0 0.00 0.00 0.00 78 1012.1
20260906135839 71 83 0.0 0.0 0.00 0.00 0.00 78 1012.1
20260906135455 71 83 0.0 0.0 0.00 0.00 0.00 79 1012.1
20260906134337 71 83 0.0 0.0 0.00 0.00 0.00 80 1012.0
20260906133837 71 83 0.0 0.0 0.00 0.00 0.00 80 1011.8
20260906133338 71 83 0.0 0.0 0.00 0.00 0.00 81 1011.8
20260906132840 71 83 0.0 0.0 0.00 0.00 0.00 81 1011.8
20260906132343 71 83 0.0 0.0 0.00 0.00 0.00 81 1011.8
20260906132339 71 83 0.0 0.0 0.00 0.00 0.00 81 1011.8
20260906131955 71 83 0.0 0.0 0.00 0.00 0.00 80 1011.8
20260906130836 71 83 0.0 0.0 0.00 0.00 0.00 80 1011.7
20260906130337 72 83 0.0 0.0 0.00 0.00 0.00 80 1011.6
20260906125841 72 83 0.0 2.0 0.00 0.00 0.00 79 1011.6
20260906125835 72 83 0.0 0.0 0.00 0.00 0.00 80 1011.6
20260906124837 71 83 0.0 2.0 0.00 0.00 0.00 79 1011.6
20260906124336 71 83 0.0 0.0 0.00 0.00 0.00 79 1011.7
20260906123835 72 83 0.0 0.0 0.00 0.00 0.00 79 1011.7
20260906123334 72 83 0.0 0.0 0.00 0.00 0.00 79 1011.5
20260906122833 71 83 0.0 0.0 0.00 0.00 0.00 79 1011.6
20260906122332 71 83 0.0 0.0 0.00 0.00 0.00 79 1011.5
20260906121831 71 83 0.0 1.0 0.00 0.00 0.00 80 1011.5
20260906121332 71 83 0.0 1.0 0.00 0.00 0.00 79 1011.7
20260906120832 71 83 0.0 1.0 0.00 0.00 0.00 80 1011.8
20260906120337 72 83 0.0 1.0 0.00 0.00 0.00 79 1011.7
20260906120333 72 83 0.0 0.0 0.00 0.00 0.00 79 1011.7
20260906115333 71 83 0.0 1.0 0.00 0.00 0.00 78 1011.7
20260906114833 71 83 0.0 0.0 0.00 0.00 0.00 77 1011.7
20260906114332 71 83 0.0 0.0 0.00 0.00 0.00 77 1011.8
20260906113831 71 83 0.0 0.0 0.00 0.00 0.00 77 1011.7
20260906113330 71 83 0.0 0.0 0.00 0.00 0.00 77 1011.6
20260906112831 71 83 0.0 0.0 0.00 0.00 0.00 78 1011.7
20260906112332 71 83 0.0 1.0 0.00 0.00 0.00 78 1011.8
20260906111830 71 83 0.0 1.0 0.00 0.00 0.00 80 1012.0
20260906111330 72 83 0.0 1.0 0.00 0.00 0.00 80 1011.9
20260906110830 72 83 0.0 1.0 0.00 0.00 0.00 79 1012.0
20260906110329 72 83 0.0 0.0 0.00 0.00 0.00 75 1011.9
20260906105829 71 83 0.0 0.0 0.00 0.00 0.00 74 1011.9
20260906105330 71 83 0.0 0.0 0.00 0.00 0.00 75 1011.9
20260906104836 71 83 0.0 0.0 0.00 0.00 0.00 78 1011.9
20260906104830 71 83 0.0 0.0 0.00 0.00 0.00 75 1011.9
20260906103828 72 83 0.0 0.0 0.00 0.00 0.00 80 1011.9
20260906103327 71 83 0.0 0.0 0.00 0.00 0.00 80 1011.9
20260906102833 72 83 0.0 0.0 0.00 0.00 0.00 80 1011.9
20260906102827 71 83 0.0 0.0 0.00 0.00 0.00 80 1011.9
20260906102327 71 83 0.0 0.0 0.00 0.00 0.00 80 1011.8
20260906101330 72 83 0.0 0.0 0.00 0.00 0.00 80 1011.9
20260906100829 72 83 0.0 0.0 0.00 0.00 0.00 80 1011.8
20260906100328 72 83 0.0 0.0 0.00 0.00 0.00 80 1011.8
20260906095828 72 83 0.0 0.0 0.00 0.00 0.00 79 1012.0
20260906095327 72 83 0.0 0.0 0.00 0.00 0.00 78 1011.9
20260906094825 72 83 0.0 0.0 0.00 0.00 0.00 77 1012.0
20260906094326 72 83 0.0 0.0 0.00 0.00 0.00 76 1012.0
20260906093825 72 83 0.0 1.0 0.00 0.00 0.00 76 1012.1
20260906093326 72 83 0.0 1.0 0.00 0.00 0.00 76 1011.9
20260906092828 73 83 0.0 1.0 0.00 0.00 0.00 75 1012.0
20260906092325 72 83 0.0 0.0 0.00 0.00 0.00 73 1012.0
20260906091825 72 83 0.0 0.0 0.00 0.00 0.00 73 1012.0
20260906091332 73 83 0.0 0.0 0.00 0.00 0.00 73 1012.1
20260906091325 73 83 0.0 0.0 0.00 0.00 0.00 74 1011.9
20260906090825 73 83 0.0 1.0 0.00 0.00 0.00 75 1012.0
20260906090427 73 83 0.0 1.0 0.00 0.00 0.00 74 1012.1
20260906085324 73 83 0.0 0.0 0.00 0.00 0.00 73 1012.1
20260906084828 73 83 0.0 0.0 0.00 0.00 0.00 72 1012.2
20260906084822 73 83 0.0 0.0 0.00 0.00 0.00 72 1012.1
20260906083820 73 83 0.0 2.0 0.00 0.00 0.00 72 1012.4
20260906083321 73 83 1.0 3.0 0.00 0.00 0.00 71 1012.3
20260906082821 73 83 1.0 3.0 0.00 0.00 0.00 71 1012.5
20260906082438 74 83 0.0 0.0 0.00 0.00 0.00 71 1012.5
20260906082326 74 83 0.0 0.0 0.00 0.00 0.00 72 1012.3
20260906082321 74 83 0.0 0.0 0.00 0.00 0.00 74 1012.3
20260906080818 74 83 0.0 0.0 0.00 0.00 0.00 72 1012.3
20260906080320 74 83 0.0 0.0 0.00 0.00 0.00 71 1012.3
20260906075819 75 83 0.0 0.0 0.00 0.00 0.00 70 1012.3
20260906075322 75 83 0.0 0.0 0.00 0.00 0.00 66 1012.3
20260906075318 75 83 0.0 0.0 0.00 0.00 0.00 68 1012.2
20260906074317 76 83 0.0 0.0 0.00 0.00 0.00 64 1012.3
20260906073822 76 83 0.0 0.0 0.00 0.00 0.00 58 1012.4
20260906073817 76 83 0.0 0.0 0.00 0.00 0.00 60 1012.5
20260906072817 76 83 0.0 0.0 0.00 0.00 0.00 57 1012.4
20260906072318 76 83 0.0 0.0 0.00 0.00 0.00 56 1012.4
20260906071817 76 83 0.0 0.0 0.00 0.00 0.00 55 1012.2
20260906071318 76 83 0.0 0.0 0.00 0.00 0.00 55 1012.3
20260906070817 76 83 0.0 0.0 0.00 0.00 0.00 55 1012.4
20260906070316 76 83 0.0 0.0 0.00 0.00 0.00 56 1012.5
20260906065814 76 83 0.0 0.0 0.00 0.00 0.00 56 1012.5
20260906065315 76 83 0.0 0.0 0.00 0.00 0.00 55 1012.3
20260906064814 76 83 0.0 0.0 0.00 0.00 0.00 54 1012.3
20260906064314 76 83 0.0 0.0 0.00 0.00 0.00 55 1012.1
20260906063814 76 83 0.0 0.0 0.00 0.00 0.00 54 1012.1
20260906063315 76 83 0.0 0.0 0.00 0.00 0.00 51 1012.2
20260906062814 76 83 0.0 0.0 0.00 0.00 0.00 50 1012.2
20260906062315 76 83 0.0 1.0 0.00 0.00 0.00 49 1012.3
20260906061818 76 83 0.0 2.0 0.00 0.00 0.00 50 1012.2
20260906061813 76 83 0.0 1.0 0.00 0.00 0.00 49 1012.3
20260906060815 77 83 0.0 2.0 0.00 0.00 0.00 50 1012.2
20260906060314 77 83 0.0 0.0 0.00 0.00 0.00 49 1012.2
20260906055815 77 83 0.0 0.0 0.00 0.00 0.00 47 1012.2
20260906055314 77 83 0.0 0.0 0.00 0.00 0.00 47 1012.0
20260906054819 78 83 0.0 0.0 0.00 0.00 0.00 46 1012.2
20260906054814 78 83 0.0 0.0 0.00 0.00 0.00 47 1012.1
20260906053815 78 83 0.0 0.0 0.00 0.00 0.00 45 1012.2
20260906053313 78 83 0.0 0.0 0.00 0.00 0.00 45 1012.3
20260906052813 78 83 0.0 1.0 0.00 0.00 0.00 45 1012.3
20260906052311 78 83 0.0 1.0 0.00 0.00 0.00 46 1012.3
20260906051812 78 83 0.0 0.0 0.00 0.00 0.00 48 1012.4
20260906051313 78 83 0.0 0.0 0.00 0.00 0.00 48 1012.3
20260906050811 78 83 0.0 0.0 0.00 0.00 0.00 49 1012.2
20260906050317 78 83 0.0 0.0 0.00 0.00 0.00 47 1012.4
20260906050312 78 83 0.0 0.0 0.00 0.00 0.00 48 1012.3
20260906045313 78 83 0.0 0.0 0.00 0.00 0.00 47 1012.3
20260906044812 78 83 0.0 0.0 0.00 0.00 0.00 46 1012.3
20260906044312 78 83 0.0 0.0 0.00 0.00 0.00 45 1012.4
20260906043810 78 83 0.0 0.0 0.00 0.00 0.00 46 1012.5
20260906043310 79 83 0.0 0.0 0.00 0.00 0.00 46 1012.6
20260906042811 79 83 0.0 0.0 0.00 0.00 0.00 45 1012.5
20260906042311 79 83 0.0 0.0 0.00 0.00 0.00 45 1012.5
20260906041811 78 83 0.0 0.0 0.00 0.00 0.00 46 1012.3
20260906041309 78 83 0.0 1.0 0.00 0.00 0.00 46 1012.4
20260906040809 78 83 0.0 1.0 0.00 0.00 0.00 46 1012.4
20260906040311 78 83 0.0 1.0 0.00 0.00 0.00 46 1012.3
20260906035811 79 83 0.0 1.0 0.00 0.00 0.00 46 1012.3
20260906035310 79 83 0.0 2.0 0.00 0.00 0.00 45 1012.2
20260906034809 79 83 1.0 2.0 0.00 0.00 0.00 43 1012.2
20260906034309 80 83 1.0 2.0 0.00 0.00 0.00 41 1012.3
20260906033810 80 83 1.0 3.0 0.00 0.00 0.00 41 1012.1
20260906033310 80 83 1.0 3.0 0.00 0.00 0.00 40 1012.3
20260906032809 80 83 1.0 4.0 0.00 0.00 0.00 40 1012.3
20260906032309 80 81 0.0 4.0 0.00 0.00 0.00 42 1012.2
20260906031809 80 313 0.0 0.0 0.00 0.00 0.00 44 1012.2
20260906031309 80 313 0.0 0.0 0.00 0.00 0.00 44 1012.2
20260906030811 80 313 0.0 0.0 0.00 0.00 0.00 44 1012.1
20260906030311 80 313 0.0 0.0 0.00 0.00 0.00 43 1012.0
20260906025814 80 313 0.0 0.0 0.00 0.00 0.00 43 1012.0
20260906025810 80 313 0.0 0.0 0.00 0.00 0.00 44 1012.0
20260906024810 80 313 1.0 3.0 0.00 0.00 0.00 43 1011.8
20260906024309 80 313 1.0 3.0 0.00 0.00 0.00 43 1011.9
20260906023810 80 313 1.0 3.0 0.00 0.00 0.00 42 1011.7
20260906023310 81 313 2.0 4.0 0.00 0.00 0.00 41 1011.7
20260906022809 81 313 2.0 4.0 0.00 0.00 0.00 42 1011.8
20260906022312 81 316 2.0 4.0 0.00 0.00 0.00 41 1011.6
20260906021808 81 315 1.0 4.0 0.00 0.00 0.00 40 1011.6
20260906021309 82 315 2.0 3.0 0.00 0.00 0.00 39 1011.6
20260906020808 82 315 2.0 6.0 0.00 0.00 0.00 38 1011.7
20260906020307 83 313 2.0 6.0 0.00 0.00 0.00 38 1011.8
20260906015809 83 324 1.0 5.0 0.00 0.00 0.00 37 1011.8
20260906015309 83 324 2.0 6.0 0.00 0.00 0.00 36 1011.7
20260906014807 83 333 1.0 6.0 0.00 0.00 0.00 35 1011.7
20260906014307 84 1 1.0 4.0 0.00 0.00 0.00 35 1011.6
20260906013808 84 334 2.0 7.0 0.00 0.00 0.00 36 1011.6
20260906013307 85 296 2.0 7.0 0.00 0.00 0.00 37 1011.5
20260906012808 85 320 3.0 8.0 0.00 0.00 0.00 37 1011.5
20260906012306 85 309 3.0 8.0 0.00 0.00 0.00 37 1011.6
20260906011805 86 305 3.0 7.0 0.00 0.00 0.00 37 1011.7
20260906011311 87 313 2.0 6.0 0.00 0.00 0.00 37 1011.7
20260906011305 86 305 2.0 6.0 0.00 0.00 0.00 37 1011.6
20260906010306 87 311 2.0 7.0 0.00 0.00 0.00 38 1011.6
20260906005805 88 297 3.0 7.0 0.00 0.00 0.00 37 1011.6
20260906005307 88 305 3.0 7.0 0.00 0.00 0.00 36 1011.6
20260906004806 89 309 3.0 7.0 0.00 0.00 0.00 36 1011.5
20260906004310 89 304 3.0 8.0 0.00 0.00 0.00 36 1011.4
20260906004305 89 288 2.0 8.0 0.00 0.00 0.00 37 1011.4
20260906003303 90 357 3.0 7.0 0.00 0.00 0.00 36 1011.4
20260906002805 90 324 3.0 9.0 0.00 0.00 0.00 37 1011.5
20260906002306 90 293 2.0 9.0 0.00 0.00 0.00 37 1011.4
20260906001804 91 348 1.0 6.0 0.00 0.00 0.00 35 1011.4
20260906001305 91 29 3.0 10.0 0.00 0.00 0.00 34 1011.5
20260906000809 91 338 4.0 10.0 0.00 0.00 0.00 32 1011.4
20260906000803 91 358 3.0 10.0 0.00 0.00 0.00 33 1011.5
20260905235803 92 338 2.0 10.0 0.00 0.00 0.00 31 1011.5
20260905235306 92 331 1.0 10.0 0.00 0.00 0.00 32 1011.4
20260905234810 92 332 2.0 9.0 0.00 0.00 0.00 31 1011.5
20260905234805 92 318 2.0 10.0 0.00 0.00 0.00 31 1011.5
20260905234301 92 10 2.0 8.0 0.00 0.00 0.00 31 1011.4
20260905233301 93 317 2.0 10.0 0.00 0.00 0.00 32 1011.4
20260905232801 93 343 3.0 10.0 0.00 0.00 0.00 32 1011.5
20260905232301 93 322 2.0 10.0 0.00 0.00 0.00 32 1011.4
20260905231801 93 350 2.0 10.0 0.00 0.00 0.00 33 1011.5
20260905231301 94 343 2.0 10.0 0.00 0.00 0.00 33 1011.4
20260905230801 93 309 2.0 10.0 0.00 0.00 0.00 33 1011.6
20260905230301 93 53 3.0 8.0 0.00 0.00 0.00 33 1011.5
20260905225801 93 325 4.0 9.0 0.00 0.00 0.00 34 1011.6
20260905225300 94 3 2.0 9.0 0.00 0.00 0.00 34 1011.6
20260905224800 94 322 1.0 9.0 0.00 0.00 0.00 34 1011.6
20260905224259 94 303 3.0 9.0 0.00 0.00 0.00 35 1011.6
20260905223758 93 321 4.0 11.0 0.00 0.00 0.00 35 1011.6
20260905223257 94 318 4.0 11.0 0.00 0.00 0.00 35 1011.7
20260905222757 95 296 3.0 10.0 0.00 0.00 0.00 34 1011.7